Regional Weather Roundup
Issued by NWS

Home | Current Version | Previous Version | Text Only | Print | Product List | Glossary Off
Versions: 1 2 3 4 5 6 7 8 9 10 11 12 13 14 15 16 17 18 19 20 21 22 23 24 25 26 27 28 29 30 31 32 33 34 35 36 37 38 39 40 41 42 43 44 45 46 47 48 49 50

000
ASUS43 KOAX 250602
RWRNE

WEATHER ROUNDUP FOR NEBRASKA
NATIONAL WEATHER SERVICE OMAHA NE
100 AM CDT WED APR 25 2018

NOTES: SATELLITE DATA IS BEING USED TO AUGMENT CLOUD COVER ABOVE
       12000 FEET.
       "FAIR" INDICATES FEW OR NO CLOUDS BELOW 12,000 FEET WITH NO
       SIGNIFICANT WEATHER AND/OR OBSTRUCTIONS TO VISIBILITY.


NEZ001>004-019>022-054>056-250700-
NEBRASKA PANHANDLE

CITY           SKY/WX    TMP DP  RH WIND       PRES   REMARKS
SCOTTSBLUFF    MOCLDY    31  29  92 N6        30.43S WCI  25
6HR MIN TEMP:  29; 6HR MAX TEMP:  44;

ALLIANCE       CLOUDY    30  30 100 W6        30.41S WCI  24
6HR MIN TEMP:  25; 6HR MAX TEMP:  39;

CHADRON        CLEAR     28  26  92 W8        30.42F WCI  20
6HR MIN TEMP:  27; 6HR MAX TEMP:  48;

GORDON         CLOUDY    37  31  78 W5        30.39S WCI  34
6HR MIN TEMP:  35; 6HR MAX TEMP:  41;

KIMBALL        PTCLDY    33  29  86 CALM      30.42S
SIDNEY         CLOUDY    31  27  85 NE6       30.42S WCI  25
6HR MIN TEMP:  27; 6HR MAX TEMP:  40;

$$

NEZ057>060-069>072-079>082-250700-
SOUTHWEST NEBRASKA

CITY           SKY/WX    TMP DP  RH WIND       PRES   REMARKS
NORTH PLATTE   CLOUDY    37  33  85 N12       30.38F WCI  29
6HR MIN TEMP:  37; 6HR MAX TEMP:  40; 6HR PCP: TRACE;

IMPERIAL       CLOUDY    37  32  82 NW15      30.40F WCI  28
6HR MIN TEMP:  37; 6HR MAX TEMP:  41;

LEXINGTON      CLOUDY    39  35  86 NW13      30.35S WCI  32
MCCOOK         CLOUDY    38  34  85 N17       30.36F WCI  28
6HR MIN TEMP:  38; 6HR MAX TEMP:  43;

OGALLALA       CLOUDY    38  32  79 NW9       30.41F WCI  32
$$

NEZ005>010-023>029-035>040-094-250700-
NORTH CENTRAL NEBRASKA

CITY           SKY/WX    TMP DP  RH WIND       PRES   REMARKS
VALENTINE      CLOUDY    39  34  82 NW7       30.37F WCI  34
6HR MIN TEMP:  37; 6HR MAX TEMP:  39; 6HR PCP: TRACE;

AINSWORTH      CLOUDY    37  36  96 NW7       30.36F WCI  31
BROKEN BOW     CLOUDY    38  35  89 N17       30.34S WCI  28
6HR MIN TEMP:  37; 6HR MAX TEMP:  40; 6HR PCP:  0.01;

O`NEILL        CLOUDY    42  40  91 N7        30.34S
ORD            CLOUDY    40  38  93 N13       30.32S WCI  32
6HR MIN TEMP:  40; 6HR MAX TEMP:  43; 6HR PCP: TRACE;

THEDFORD       CLOUDY    36  35  94 NW8       30.38F WCI  30
$$

NEZ041-046>049-061>064-073>077-083>087-250700-
SOUTH CENTRAL NEBRASKA

CITY           SKY/WX    TMP DP  RH WIND       PRES   REMARKS
GRAND ISLAND   CLOUDY    42  39  89 N17       30.30S
6HR MIN TEMP:  42; 6HR MAX TEMP:  46; 6HR PCP: TRACE;

AURORA         CLOUDY    42  41  95 N17       30.28R
HASTINGS       CLOUDY    42  41  96 N18G26    30.27F
6HR MIN TEMP:  42; 6HR MAX TEMP:  46; 6HR PCP: TRACE;

HEBRON         CLOUDY    47  45  90 N12G17    30.23F
HOLDREGE       CLOUDY    39  37  95 N15G21    30.32S WCI  30
KEARNEY        LGT RAIN  40  38  93 N17       30.31F WCI  31
YORK             N/A     43  43 100 NE23G31   30.27R
$$

NEZ011>018-030>034-042>045-250700-
NORTHEAST NEBRASKA

CITY           SKY/WX    TMP DP  RH WIND       PRES   REMARKS
NORFOLK        LGT RAIN  43  41  93 N15       30.28S
6HR MIN TEMP:  42; 6HR MAX TEMP:  45; 6HR PCP:  0.09;

ALBION         DRIZZLE   42  40  93 N13       30.31S
BLAIR          LGT RAIN  47  45  94 N15       30.23R
COLUMBUS       CLOUDY    43  41  93 N13       30.28S
FREMONT        LGT RAIN  47  45  95 N8        30.26S
TEKAMAH        LGT RAIN  45  43  93 N16       30.26R
6HR MIN TEMP:  45; 6HR MAX TEMP:  54; 6HR PCP:  0.07;

WAYNE          DRIZZLE   44  43  97 N16       30.28S
$$

NEZ050>053-065>068-078-088>093-250700-
SOUTHEAST NEBRASKA

CITY           SKY/WX    TMP DP  RH WIND       PRES   REMARKS
LINCOLN        LGT RAIN  48  46  93 N10       30.24S FOG
6HR MIN TEMP:  48; 6HR MAX TEMP:  51; 6HR PCP:  0.06;

OMAHA EPPLEY   CLOUDY    50  46  86 N13       30.23R
6HR MIN TEMP:  49; 6HR MAX TEMP:  57; 6HR PCP:  0.04;

BEATRICE       DRIZZLE   51  50  98 N9        30.22S
FALLS CITY     CLOUDY    54  46  74 N10       30.15F
6HR MIN TEMP:  53; 6HR MAX TEMP:  62; 6HR PCP: TRACE;

NEBRASKA CITY  CLOUDY    51  48  92 N13       30.19S
PLATTSMOUTH    CLOUDY    50  46  87 N9        30.21S
$$

NEZ044-045-051>053-067-250700-
OMAHA AREA

CITY           SKY/WX    TMP DP  RH WIND       PRES   REMARKS
OMAHA EPPLEY   CLOUDY    50  46  86 N13       30.23R
6HR MIN TEMP:  49; 6HR MAX TEMP:  57; 6HR PCP:  0.04;

BLAIR          LGT RAIN  47  45  94 N15       30.23R
FREMONT        LGT RAIN  47  45  95 N8        30.26S
MILLARD        CLOUDY    51  47  87 N7        30.23S
OFFUTT AFB     CLOUDY    49  46  87 N8        30.21R
PLATTSMOUTH    CLOUDY    50  46  87 N9        30.21S
WAHOO          CLOUDY    47  44  89 N12       30.24F
$$




USA.gov is the U.S. government's official web portal to all federal, state and local government web resources and services.